Temp
19 18 18 18 17 17 16 16 16 16 16 16 16 16 15 15 15 15 15 15 14 14 14 14 14 14 14 14 13 13 13 13 12 12 12 12 12 12 12 12 11 11 11 11 11 11 11 11 11 10 10 10 10 10 10 10 10 10 10 9 9 9 8
19 19 18 18 18 17 17 17 16 16 16 16 16 16 15 15 15 15 15 15 15 14 14 14 14 14 14 14 13 13 13 13 13 12 12 12 12 12 12 12 11 11 11 11 11 11 11 11 11 10 10 10 10 10 9 9 9 10 9 9 9 9 8
19 19 19 18 18 18 17 17 17 16 16 16 16 16 16 15 15 15 15 15 15 14 14 14 14 14 14 14 13 13 13 13 13 12 12 12 12 12 12 12 12 11 11 11 11 11 11 11 10 10 10 10 10 10 9 9 9 9 9 9 9 8 8
19 19 19 19 19 18 18 17 17 17 16 16 16 16 16 15 15 15 15 15 14 14 14 14 14 14 14 14 13 13 13 13 13 13 12 12 12 12 12 12 11 11 11 11 11 10 10 10 10 10 10 10 10 9 9 9 9 9 9 8 8 8 8
20 20 19 19 19 18 18 18 17 17 17 16 16 16 15 15 15 15 15 14 14 14 14 14 14 14 14 14 13 13 13 13 13 13 12 12 12 12 11 11 11 11 11 11 11 10 10 10 10 10 10 10 9 9 9 9 9 9 8 8 8 8 8
19 20 19 19 19 19 18 18 18 17 17 17 16 16 15 15 15 15 14 14 14 14 14 14 14 14 14 13 13 13 13 13 13 13 12 12 12 12 11 11 11 11 11 11 11 10 10 10 10 9 9 9 9 9 9 9 9 8 8 8 8 8 8
19 20 20 19 19 19 18 18 18 18 17 17 17 16 16 15 15 15 14 14 14 14 14 14 14 14 14 13 13 13 13 13 13 12 12 12 12 12 11 11 11 11 11 11 11 10 10 10 9 9 9 9 9 9 9 8 8 8 8 8 8 8 8
20 20 20 19 19 19 19 18 18 18 18 17 17 16 16 15 15 15 14 14 14 14 14 14 14 14 13 13 13 13 13 13 13 12 12 12 12 12 11 11 11 11 11 11 10 10 10 10 9 9 9 9 9 9 8 8 8 7 8 8 7 8 8
20 20 20 19 19 19 19 18 18 18 18 17 17 17 16 16 15 15 14 14 14 14 14 14 13 13 13 13 13 13 13 13 13 13 12 12 12 12 11 11 11 11 11 10 10 10 10 9 9 9 9 9 9 8 8 7 7 7 7 7 7 7 7
19 19 19 19 19 19 19 18 18 18 18 18 17 17 16 16 15 15 15 14 14 14 14 13 13 13 13 13 13 13 13 13 13 12 12 12 12 12 11 11 11 11 10 10 10 10 10 9 9 9 9 9 8 8 7 7 7 7 7 7 7 7 7
19 19 19 19 19 19 19 19 19 19 18 18 17 17 16 16 16 15 15 14 14 14 14 14 13 13 13 13 13 13 13 13 13 12 12 12 12 12 11 11 11 11 10 10 10 10 10 10 9 9 9 8 8 7 7 7 7 7 6 6 6 6 7
19 19 19 19 19 19 19 19 19 18 18 18 17 17 17 16 16 16 15 15 15 14 14 14 14 13 13 13 13 13 13 13 13 13 12 12 12 12 11 11 11 11 10 10 10 10 10 10 9 9 9 9 8 8 7 6 6 6 6 6 6 6 7
19 19 19 19 19 19 19 19 19 18 18 18 17 17 17 16 16 16 15 15 15 14 14 14 14 14 14 13 13 13 13 13 13 13 12 12 12 11 11 11 11 11 10 10 10 10 10 10 9 9 9 8 9 8 7 6 6 6 6 6 6 6 6
19 19 19 19 19 19 19 19 19 18 18 18 17 17 17 16 16 16 16 16 15 15 14 14 14 14 14 14 13 13 13 13 13 13 12 12 12 12 11 11 11 10 10 10 10 10 10 9 9 9 9 8 8 8 7 7 6 6 6 6 6 6 6
19 19 19 19 19 19 19 19 18 18 18 18 18 17 16 16 16 16 16 16 15 15 14 14 14 14 14 14 13 13 13 13 13 13 13 12 12 12 11 11 10 10 9 9 10 10 9 9 9 9 9 9 8 7 7 7 7 6 6 6 6 6 6
19 19 19 19 19 19 19 19 18 18 18 18 17 17 16 16 17 17 16 16 15 15 14 14 14 14 14 14 13 13 13 13 13 13 13 13 12 12 12 11 11 10 9 10 10 10 9 9 9 9 9 9 8 7 7 7 6 6 6 5 6 6 6
19 19 19 19 19 19 19 19 18 18 18 18 17 17 17 17 17 16 16 16 15 15 14 14 14 14 14 14 14 13 13 13 13 13 13 13 13 12 12 12 12 11 10 10 10 10 10 9 9 9 9 9 8 6 6 6 6 6 6 5 5 5 6
19 19 19 19 19 19 19 19 19 18 18 18 17 17 17 17 17 16 16 16 15 15 14 14 14 14 14 14 14 14 13 13 13 13 13 13 13 12 12 12 12 12 11 11 11 10 10 9 9 9 9 8 7 6 6 6 6 6 5 5 5 5 6
19 19 19 19 19 19 19 19 19 18 18 18 17 17 17 17 16 16 16 15 15 15 15 15 15 14 14 14 14 14 13 13 13 13 13 13 13 13 13 13 12 12 12 12 12 11 11 10 9 9 8 7 7 7 6 6 6 5 5 5 5 5 6
19 19 19 19 19 19 19 19 19 18 18 18 17 17 16 16 16 16 16 15 15 15 15 15 15 14 14 14 14 13 13 13 13 13 13 13 13 13 13 13 13 13 12 12 12 12 11 10 9 8 8 7 7 7 6 6 5 5 4 5 5 5 6
19 19 19 19 19 19 19 19 18 18 18 17 17 17 16 16 16 16 16 15 15 15 15 15 14 14 14 14 14 14 14 13 13 13 13 13 13 13 13 13 13 12 12 12 12 11 11 10 9 8 8 7 7 6 6 6 5 5 5 5 5 5 6
19 19 19 19 19 19 19 19 18 18 18 17 17 17 16 16 16 16 16 15 15 15 15 14 14 14 14 14 14 14 13 13 13 13 13 13 13 13 13 13 12 12 12 11 11 11 11 10 9 8 7 7 6 6 6 6 5 5 5 5 5 5 5
19 19 19 19 19 19 19 19 18 18 17 17 17 17 16 16 16 16 16 15 15 15 14 14 14 14 14 14 14 13 13 13 13 13 13 13 13 13 13 12 12 12 11 11 11 11 10 10 9 8 7 7 6 6 5 5 6 5 5 5 5 5 5
19 19 19 19 19 19 19 18 18 18 17 17 17 17 16 16 16 16 15 15 15 15 14 14 14 14 14 14 13 13 13 13 13 13 13 13 13 13 13 12 12 12 11 11 11 11 10 9 9 8 7 7 6 6 5 5 5 5 5 5 5 5 5
19 19 19 19 18 18 19 18 18 18 17 17 17 16 16 16 16 15 15 15 15 15 14 14 14 14 14 13 13 13 13 13 12 12 12 12 12 13 12 12 12 11 11 11 11 10 10 9 9 8 7 7 6 6 6 6 6 6 5 5 5 5 5
19 19 19 19 19 18 18 18 18 18 17 17 17 16 16 16 15 15 15 15 15 14 14 14 14 14 13 13 13 13 12 12 12 12 12 12 12 12 12 11 11 11 10 10 10 10 10 9 9 8 7 7 6 6 6 6 6 6 6 5 5 5 5
19 19 19 19 18 18 18 18 18 17 17 17 16 16 16 16 15 15 15 15 14 14 14 14 14 13 13 13 12 12 12 12 12 12 12 12 12 12 12 11 10 10 10 10 10 10 9 9 9 8 7 6 6 6 6 6 6 6 6 5 5 5 5
18 18 18 18 18 18 18 18 17 17 17 17 16 16 16 15 15 15 15 14 14 14 14 14 13 13 13 12 12 12 12 12 12 12 12 12 12 12 11 11 10 10 10 10 10 9 9 9 8 7 6 6 6 6 6 6 6 6 6 6 5 5 5
18 18 18 18 17 17 17 17 17 17 17 16 16 16 15 15 15 14 14 14 14 14 14 13 13 13 13 12 12 12 12 12 12 12 12 12 12 11 11 10 10 9 9 9 9 9 9 8 8 7 6 6 6 6 6 6 6 6 6 6 6 5 5
18 18 17 17 17 16 16 16 16 16 16 16 15 15 14 14 14 14 14 14 14 13 13 13 13 13 13 12 12 12 12 12 12 12 12 11 11 11 10 10 9 9 9 9 9 9 8 8 7 7 6 6 6 6 6 6 6 6 6 6 5 5 5
16 16 16 16 15 15 15 15 15 15 15 14 14 14 14 14 14 14 14 13 13 13 13 12 13 13 12 12 12 12 12 12 12 11 11 11 11 10 10 9 9 9 8 8 8 8 8 7 7 6 6 6 6 6 6 6 6 6 5 5 5 4 4
15 15 14 14 14 14 14 14 14 14 14 14 14 14 14 13 13 13 13 13 13 12 12 12 12 12 12 12 12 11 11 11 11 11 11 11 10 10 10 9 9 8 8 8 8 8 7 7 6 6 5 6 6 6 6 5 5 5 5 5 4 4 5
14 14 14 14 14 14 13 13 13 13 13 13 13 13 13 13 13 13 13 12 12 12 12 12 12 12 11 11 11 11 11 11 11 11 10 10 10 9 9 9 9 8 8 8 7 7 7 6 6 5 5 5 6 6 5 5 5 5 4 4 5 5 5
13 13 13 13 13 13 13 13 13 13 13 13 13 13 12 12 12 12 12 12 12 12 11 11 11 11 11 11 11 11 11 11 11 10 10 10 9 9 9 8 8 8 8 7 7 7 6 6 5 5 5 5 5 5 5 5 5 5 5 5 5 5 5
12 12 12 12 12 11 11 11 11 12 12 12 12 12 12 12 12 11 11 11 11 11 11 11 11 11 11 11 11 11 11 10 10 10 9 9 9 9 8 8 8 8 7 7 7 6 6 5 5 5 5 5 5 5 5 5 5 5 5 5 5 5 5
11 11 11 11 11 11 11 11 11 11 11 11 11 11 11 11 11 11 11 11 11 11 11 11 11 11 11 11 11 10 10 9 9 9 9 9 8 8 8 8 8 7 7 6 6 6 5 5 5 5 5 5 5 5 5 5 5 5 5 5 5 5 5
11 11 11 11 11 11 11 11 11 11 11 11 11 11 11 11 11 11 11 11 10 10 10 10 10 11 11 10 10 10 9 9 9 9 8 8 8 8 8 8 8 7 7 6 6 5 5 5 5 5 5 5 5 5 5 5 5 5 5 5 5 5 5
11 11 11 11 11 11 11 10 10 10 10 10 10 10 10 10 10 10 10 10 10 10 10 10 10 10 10 10 9 9 9 8 8 8 8 8 8 8 8 8 7 7 6 6 6 5 5 5 5 5 5 5 5 5 5 5 5 5 5 4 4 4 4
Height
3154 3155 3156 3157 3158 3159 3161 3162 3164 3165 3166 3167 3168 3170 3171 3172 3173 3174 3176 3177 3179 3180 3182 3183 3184 3185 3186 3187 3188 3189 3190 3191 3192 3193 3194 3195 3195 3195 3196 3196 3197 3197 3197 3197 3197 3197 3197 3197 3197 3196 3196 3196 3195 3195 3194 3193 3192 3192 3190 3190 3189 3188 3187
3151 3152 3153 3154 3155 3156 3158 3159 3161 3163 3164 3165 3166 3168 3169 3170 3171 3173 3174 3176 3177 3178 3180 3181 3183 3184 3185 3186 3186 3187 3188 3189 3190 3191 3192 3192 3193 3194 3194 3195 3195 3196 3196 3196 3195 3195 3195 3195 3195 3195 3194 3194 3194 3194 3193 3192 3191 3191 3190 3189 3188 3187 3187
3149 3150 3151 3152 3153 3154 3155 3157 3158 3160 3161 3162 3164 3165 3166 3168 3170 3172 3173 3174 3175 3177 3178 3179 3181 3182 3183 3184 3185 3185 3186 3187 3188 3189 3190 3190 3191 3192 3193 3193 3193 3194 3194 3194 3194 3194 3193 3193 3193 3193 3193 3193 3193 3192 3192 3191 3191 3190 3189 3188 3187 3187 3186
3146 3147 3149 3150 3151 3152 3153 3154 3155 3157 3158 3160 3161 3163 3164 3166 3168 3170 3171 3172 3173 3174 3176 3177 3178 3180 3180 3181 3182 3183 3184 3185 3186 3187 3188 3188 3190 3190 3191 3191 3192 3193 3192 3192 3192 3191 3191 3191 3191 3191 3191 3191 3191 3191 3190 3190 3189 3189 3188 3187 3186 3186 3185
3143 3145 3146 3147 3148 3149 3150 3151 3152 3154 3156 3157 3159 3161 3162 3164 3166 3167 3169 3170 3171 3173 3174 3175 3176 3177 3178 3179 3180 3181 3182 3182 3184 3185 3185 3186 3187 3188 3189 3190 3190 3190 3190 3190 3189 3189 3189 3189 3188 3188 3188 3188 3189 3189 3189 3188 3188 3187 3187 3186 3185 3185 3185
3141 3142 3143 3144 3145 3146 3147 3148 3150 3152 3153 3155 3157 3159 3160 3162 3163 3165 3166 3168 3169 3170 3172 3172 3173 3175 3176 3177 3177 3178 3179 3180 3181 3182 3183 3184 3185 3186 3187 3187 3187 3187 3187 3187 3187 3187 3187 3186 3186 3186 3186 3186 3186 3186 3187 3187 3186 3186 3185 3184 3183 3184 3184
3138 3139 3140 3141 3142 3144 3145 3146 3147 3149 3151 3153 3155 3156 3158 3159 3161 3163 3164 3165 3166 3168 3169 3170 3171 3172 3173 3174 3175 3176 3177 3178 3179 3180 3180 3181 3183 3184 3184 3184 3184 3185 3185 3185 3184 3184 3183 3183 3183 3184 3184 3184 3183 3183 3185 3185 3184 3184 3183 3182 3182 3183 3182
3136 3136 3137 3138 3139 3141 3142 3143 3145 3146 3148 3150 3152 3153 3155 3156 3158 3159 3161 3162 3164 3165 3166 3167 3168 3170 3171 3172 3172 3173 3175 3176 3177 3177 3178 3179 3180 3181 3181 3181 3182 3182 3181 3181 3181 3181 3180 3179 3180 3181 3180 3180 3179 3181 3182 3182 3181 3181 3180 3180 3180 3180 3180
3133 3134 3135 3135 3136 3138 3139 3140 3142 3143 3145 3147 3148 3150 3152 3153 3155 3156 3158 3160 3162 3162 3164 3165 3166 3167 3168 3169 3170 3171 3173 3173 3174 3175 3176 3176 3177 3177 3177 3178 3179 3178 3178 3178 3178 3178 3178 3177 3178 3177 3177 3176 3176 3178 3178 3177 3178 3178 3177 3177 3178 3177 3177
3131 3131 3132 3133 3133 3135 3136 3137 3139 3141 3143 3144 3145 3147 3149 3150 3152 3154 3156 3158 3159 3160 3161 3163 3164 3164 3165 3166 3168 3169 3170 3170 3171 3172 3173 3174 3174 3174 3174 3174 3175 3175 3175 3175 3174 3174 3175 3175 3175 3174 3174 3173 3174 3174 3174 3173 3174 3174 3174 3174 3174 3174 3174
3129 3129 3129 3130 3131 3132 3132 3133 3136 3139 3140 3141 3143 3144 3146 3148 3149 3151 3153 3155 3156 3158 3159 3161 3161 3161 3162 3164 3165 3166 3167 3168 3169 3170 3171 3171 3171 3171 3171 3170 3171 3172 3172 3171 3171 3171 3172 3172 3171 3171 3170 3170 3170 3170 3170 3170 3170 3170 3171 3170 3170 3170 3170
3126 3127 3127 3128 3128 3129 3130 3130 3133 3136 3138 3139 3140 3142 3143 3145 3147 3149 3151 3152 3154 3155 3157 3158 3158 3159 3160 3161 3163 3163 3164 3165 3166 3167 3168 3168 3167 3168 3168 3167 3166 3168 3169 3168 3168 3168 3168 3168 3168 3167 3167 3167 3166 3165 3165 3166 3166 3166 3167 3167 3166 3166 3167
3123 3124 3125 3125 3126 3127 3127 3128 3131 3133 3135 3136 3138 3139 3141 3143 3144 3146 3148 3149 3151 3152 3153 3154 3155 3156 3157 3159 3160 3160 3161 3163 3163 3164 3164 3164 3164 3165 3165 3163 3162 3164 3165 3165 3165 3164 3164 3164 3164 3164 3164 3162 3162 3162 3161 3161 3161 3162 3162 3163 3163 3163 3163
3120 3121 3122 3123 3124 3124 3125 3126 3128 3130 3132 3133 3135 3137 3138 3140 3142 3143 3145 3146 3148 3149 3150 3151 3153 3154 3155 3156 3157 3157 3159 3160 3160 3161 3161 3160 3160 3161 3161 3159 3158 3160 3163 3163 3162 3160 3159 3161 3161 3161 3159 3157 3156 3156 3156 3156 3157 3158 3159 3159 3160 3160 3160
3116 3117 3118 3120 3121 3121 3122 3124 3126 3127 3129 3130 3132 3134 3136 3137 3139 3140 3142 3143 3145 3146 3147 3149 3150 3152 3153 3153 3154 3155 3156 3157 3157 3157 3157 3157 3157 3157 3157 3156 3154 3157 3160 3160 3158 3156 3155 3156 3157 3156 3155 3152 3150 3150 3151 3151 3153 3154 3156 3156 3156 3156 3157
3113 3114 3114 3116 3117 3118 3119 3121 3123 3124 3126 3128 3129 3131 3133 3134 3136 3138 3139 3141 3142 3144 3145 3146 3148 3149 3150 3151 3152 3152 3153 3153 3154 3154 3153 3153 3153 3153 3153 3151 3150 3153 3156 3154 3153 3152 3151 3152 3151 3151 3150 3147 3144 3144 3146 3147 3148 3150 3152 3153 3152 3152 3153
3109 3110 3110 3112 3113 3115 3116 3118 3119 3121 3123 3125 3127 3128 3130 3131 3133 3135 3136 3138 3139 3141 3143 3144 3145 3147 3148 3149 3149 3149 3150 3150 3150 3150 3150 3149 3149 3149 3148 3146 3145 3147 3150 3149 3147 3146 3147 3147 3146 3145 3143 3141 3139 3140 3142 3144 3144 3145 3148 3149 3149 3149 3149
3105 3106 3107 3108 3110 3111 3113 3114 3116 3118 3120 3122 3123 3125 3126 3128 3130 3132 3133 3135 3137 3139 3140 3141 3143 3144 3145 3146 3146 3146 3147 3147 3147 3147 3146 3146 3146 3145 3143 3142 3141 3141 3143 3143 3142 3142 3142 3141 3140 3139 3137 3136 3137 3137 3139 3140 3139 3141 3144 3144 3145 3146 3146
3101 3102 3103 3105 3106 3108 3109 3111 3113 3115 3116 3118 3120 3122 3123 3125 3127 3129 3131 3133 3134 3135 3137 3138 3140 3141 3142 3143 3143 3144 3144 3144 3143 3143 3142 3142 3141 3140 3139 3138 3137 3137 3137 3137 3137 3136 3135 3134 3133 3133 3132 3133 3133 3134 3135 3136 3136 3137 3139 3140 3141 3142 3143
3098 3098 3099 3101 3103 3104 3106 3108 3110 3112 3114 3116 3117 3119 3121 3123 3125 3127 3128 3129 3131 3133 3135 3136 3137 3138 3139 3140 3140 3140 3141 3140 3140 3139 3138 3137 3137 3136 3135 3134 3133 3132 3132 3132 3131 3130 3129 3128 3127 3127 3128 3129 3130 3130 3130 3131 3132 3133 3134 3136 3138 3139 3140
3094 3095 3096 3098 3099 3101 3103 3105 3107 3109 3110 3112 3113 3115 3118 3120 3121 3123 3124 3126 3128 3130 3132 3133 3134 3135 3136 3136 3136 3137 3137 3137 3136 3135 3134 3134 3133 3132 3131 3130 3129 3128 3127 3127 3126 3125 3124 3123 3122 3122 3123 3124 3125 3126 3126 3127 3128 3129 3131 3133 3135 3136 3137
3090 3091 3093 3095 3096 3098 3100 3102 3104 3106 3107 3109 3110 3112 3114 3116 3118 3119 3122 3124 3126 3127 3129 3130 3131 3131 3132 3132 3133 3133 3133 3133 3132 3131 3130 3130 3129 3128 3127 3125 3124 3123 3122 3122 3121 3121 3120 3118 3117 3118 3119 3120 3121 3122 3122 3123 3124 3126 3128 3130 3132 3133 3134
3087 3088 3089 3091 3093 3095 3097 3098 3101 3103 3104 3106 3108 3109 3111 3112 3114 3117 3119 3121 3122 3124 3125 3126 3127 3128 3128 3129 3129 3129 3129 3129 3128 3127 3126 3125 3124 3123 3122 3120 3119 3118 3118 3117 3116 3116 3115 3114 3114 3114 3115 3116 3117 3119 3120 3121 3122 3123 3126 3127 3129 3130 3131
3082 3084 3086 3087 3089 3091 3093 3095 3097 3099 3101 3102 3104 3106 3108 3110 3112 3114 3116 3117 3119 3121 3122 3123 3124 3124 3125 3125 3126 3126 3126 3125 3125 3124 3123 3121 3120 3119 3117 3116 3114 3114 3113 3113 3112 3111 3111 3110 3110 3110 3111 3112 3114 3116 3118 3119 3119 3121 3123 3124 3125 3126 3127
3078 3080 3082 3084 3085 3087 3089 3091 3093 3095 3097 3099 3100 3103 3105 3107 3109 3111 3112 3114 3116 3117 3118 3119 3120 3121 3122 3122 3122 3122 3122 3122 3121 3120 3119 3118 3116 3114 3113 3112 3111 3110 3109 3109 3108 3107 3107 3107 3107 3107 3108 3110 3111 3112 3114 3116 3117 3118 3120 3121 3122 3123 3123
3073 3075 3077 3079 3081 3083 3085 3087 3089 3091 3093 3095 3098 3100 3102 3104 3106 3108 3109 3111 3112 3113 3114 3116 3117 3118 3118 3118 3118 3118 3118 3118 3118 3117 3115 3114 3112 3111 3109 3108 3107 3107 3106 3105 3104 3104 3103 3104 3104 3105 3106 3107 3108 3109 3112 3114 3114 3115 3117 3119 3119 3120 3120
3068 3070 3072 3074 3077 3079 3081 3082 3085 3087 3090 3093 3095 3097 3099 3101 3103 3104 3106 3107 3108 3110 3111 3112 3113 3113 3114 3114 3114 3114 3114 3114 3114 3113 3112 3110 3109 3107 3106 3105 3104 3103 3103 3102 3101 3101 3101 3101 3102 3103 3104 3105 3106 3107 3109 3111 3112 3113 3114 3115 3116 3116 3117
3063 3065 3067 3069 3072 3075 3076 3079 3081 3084 3087 3089 3092 3094 3096 3098 3099 3101 3102 3104 3105 3106 3108 3108 3109 3109 3109 3110 3111 3111 3110 3110 3110 3109 3108 3107 3105 3104 3102 3101 3101 3100 3099 3099 3099 3098 3099 3100 3100 3101 3102 3103 3103 3105 3107 3108 3109 3110 3111 3112 3113 3114 3115
3059 3061 3063 3066 3068 3071 3073 3075 3078 3080 3083 3085 3088 3090 3093 3094 3096 3098 3099 3101 3102 3103 3104 3105 3105 3105 3105 3106 3107 3107 3107 3106 3106 3106 3105 3103 3102 3100 3099 3098 3097 3097 3097 3096 3096 3096 3097 3097 3098 3098 3099 3099 3100 3102 3104 3105 3106 3107 3108 3110 3111 3111 3112
3055 3057 3059 3062 3065 3067 3070 3072 3075 3077 3080 3082 3085 3087 3089 3091 3093 3095 3096 3098 3099 3100 3100 3101 3101 3101 3101 3102 3103 3103 3103 3103 3103 3102 3101 3099 3098 3097 3096 3095 3094 3094 3094 3094 3094 3094 3094 3095 3095 3096 3096 3096 3097 3100 3102 3102 3104 3106 3106 3107 3108 3108 3109
3052 3055 3057 3060 3062 3065 3068 3070 3073 3076 3078 3080 3082 3084 3086 3089 3091 3093 3094 3095 3096 3096 3097 3097 3097 3097 3098 3099 3099 3100 3099 3099 3099 3098 3097 3096 3095 3094 3093 3092 3091 3091 3091 3091 3091 3091 3092 3092 3093 3094 3094 3094 3095 3098 3099 3100 3101 3103 3104 3104 3105 3105 3105
3050 3053 3056 3059 3062 3064 3067 3069 3072 3074 3076 3078 3080 3082 3084 3087 3089 3090 3091 3091 3092 3093 3093 3093 3093 3094 3095 3095 3095 3096 3095 3095 3095 3094 3093 3092 3091 3090 3090 3089 3089 3088 3088 3088 3089 3089 3090 3090 3091 3091 3092 3092 3093 3095 3096 3097 3099 3100 3100 3101 3101 3101 3101
3049 3052 3055 3058 3061 3064 3066 3069 3071 3072 3074 3076 3078 3080 3083 3085 3086 3087 3087 3088 3089 3089 3089 3090 3090 3090 3091 3091 3091 3092 3091 3091 3091 3090 3089 3089 3088 3087 3087 3086 3086 3086 3086 3086 3086 3087 3087 3088 3089 3089 3089 3089 3090 3092 3094 3095 3097 3097 3097 3097 3097 3098 3098
3049 3052 3055 3058 3060 3063 3065 3067 3069 3070 3072 3074 3076 3079 3081 3082 3083 3083 3084 3084 3085 3085 3085 3086 3086 3086 3087 3087 3087 3087 3087 3087 3086 3086 3086 3085 3085 3085 3084 3084 3083 3083 3083 3084 3084 3084 3085 3085 3086 3087 3087 3088 3088 3089 3091 3093 3094 3094 3094 3094 3094 3094 3094
3049 3051 3054 3057 3060 3062 3064 3066 3068 3069 3070 3072 3074 3076 3078 3079 3079 3080 3080 3081 3081 3081 3081 3082 3082 3082 3083 3083 3083 3083 3083 3083 3082 3082 3082 3082 3082 3082 3082 3081 3081 3081 3081 3081 3081 3082 3082 3083 3084 3085 3086 3086 3086 3087 3088 3090 3090 3091 3091 3091 3091 3091 3090
3049 3051 3054 3057 3059 3061 3063 3065 3066 3068 3069 3070 3072 3073 3074 3075 3076 3076 3077 3077 3077 3077 3078 3078 3078 3079 3079 3079 3079 3079 3079 3079 3079 3079 3079 3078 3079 3079 3078 3078 3078 3078 3078 3078 3078 3079 3080 3081 3082 3083 3083 3084 3084 3085 3085 3086 3087 3087 3087 3087 3088 3087 3087
3049 3051 3054 3056 3057 3059 3061 3062 3064 3065 3067 3068 3069 3070 3071 3072 3072 3073 3074 3074 3074 3074 3074 3075 3075 3075 3075 3075 3075 3075 3075 3075 3075 3075 3075 3075 3075 3075 3075 3075 3075 3076 3076 3076 3076 3078 3079 3079 3080 3081 3081 3081 3082 3083 3084 3084 3084 3084 3084 3084 3084 3084 3083
3048 3050 3052 3054 3056 3057 3058 3060 3061 3062 3063 3064 3065 3067 3068 3069 3069 3070 3070 3070 3070 3070 3070 3070 3071 3071 3071 3071 3071 3071 3072 3072 3072 3072 3072 3072 3072 3072 3072 3072 3073 3073 3074 3074 3075 3076 3077 3078 3079 3079 3079 3080 3081 3081 3082 3082 3082 3082 3082 3082 3081 3081 3080
Wind_Speed
15 13 14 16 19 24 27 26 26 24 24 25 24 23 24 25 24 24 23 22 23 23 23 22 22 21 20 20 21 21 21 20 19 18 18 20 20 20 19 18 17 16 14 13 12 12 11 11 11 11 11 11 11 12 12 12 12 11 9 8 8 8 8
19 17 16 16 17 20 22 24 25 26 25 25 24 25 26 25 24 21 20 21 22 22 23 22 22 21 20 20 21 21 21 20 20 20 21 22 21 20 20 19 18 17 15 15 14 14 14 14 14 14 13 12 13 13 13 13 12 11 10 9 9 9 8
22 21 20 18 17 18 19 21 23 25 27 26 25 26 27 26 24 21 20 20 20 21 22 22 21 21 21 21 21 21 22 22 22 22 22 23 22 22 22 21 20 19 17 17 17 17 17 18 17 16 14 14 14 14 14 15 14 12 11 10 10 10 10
23 23 23 20 18 17 18 20 21 23 27 27 26 26 27 26 23 21 21 20 21 21 21 20 20 21 21 21 22 22 23 24 24 24 24 25 24 24 24 23 22 21 20 20 20 21 21 21 19 18 17 18 18 15 14 15 16 14 12 11 11 11 12
23 23 23 21 20 20 21 22 22 23 26 27 27 26 26 25 24 23 22 21 21 21 20 20 20 21 21 22 22 23 24 25 25 26 26 26 26 27 27 25 24 24 24 24 24 24 24 23 22 21 21 20 17 13 14 17 19 17 14 11 11 13 15
23 25 25 23 21 21 23 25 25 26 27 27 27 26 25 26 26 25 22 21 21 21 22 23 22 22 22 22 23 24 25 26 26 27 28 28 28 28 28 28 28 29 28 27 28 27 27 27 26 24 23 21 19 19 22 24 23 21 18 14 13 17 18
23 25 25 24 23 22 25 27 27 27 28 28 27 26 26 26 26 25 24 23 22 21 22 23 23 23 23 23 24 25 25 25 25 27 28 29 29 29 31 32 32 31 31 31 31 31 32 31 29 28 28 28 29 29 27 28 27 24 21 19 19 21 21
20 22 24 23 22 22 25 27 28 28 28 29 29 28 28 27 27 27 26 24 23 23 23 24 24 24 23 24 25 25 24 24 25 27 28 30 30 31 34 35 34 34 34 35 34 34 35 35 33 33 34 36 37 32 28 28 29 27 24 23 23 22 21
17 19 20 20 18 20 24 28 29 28 28 29 30 30 29 29 28 28 26 24 24 24 25 24 24 24 24 24 24 23 23 24 25 26 27 30 31 32 36 38 37 37 37 37 37 37 37 37 36 37 39 40 39 34 29 29 29 28 28 26 25 25 24
19 19 19 18 18 19 25 29 30 28 27 29 31 30 29 29 29 28 27 25 25 26 25 24 24 25 26 25 24 24 24 25 25 25 27 29 30 32 38 40 38 38 39 39 40 40 39 38 39 40 40 40 38 34 32 32 33 32 29 28 27 27 27
21 20 19 18 18 20 26 31 30 26 26 29 30 30 29 28 28 28 27 27 27 26 26 25 25 27 27 25 24 25 25 25 25 25 26 27 28 31 36 40 39 39 41 42 42 42 41 41 42 42 41 40 39 38 36 36 37 36 32 28 27 27 27
22 20 18 17 18 21 26 31 29 26 26 28 29 29 28 28 27 26 26 26 26 26 27 27 27 28 27 25 25 25 25 24 24 25 25 26 28 30 34 41 41 40 41 43 43 44 44 43 43 43 43 43 44 44 40 38 40 40 36 29 27 27 27
24 22 20 17 18 21 25 28 28 27 26 27 28 29 28 26 25 23 22 22 23 26 28 29 28 28 27 26 25 26 26 25 25 25 25 27 28 28 32 39 43 42 42 44 44 45 45 45 45 45 46 49 50 48 45 42 42 43 40 31 27 27 27
23 24 25 23 21 21 24 25 27 27 26 27 28 29 28 26 24 22 20 20 22 24 26 28 28 27 27 27 27 28 27 25 25 25 26 27 27 27 30 36 42 43 43 44 44 45 46 45 45 47 49 53 56 53 50 48 44 42 40 31 26 27 26
23 25 27 28 26 24 24 25 28 27 26 28 29 29 28 26 24 22 22 22 23 24 25 27 27 27 27 28 28 28 27 27 27 26 26 26 27 27 29 34 39 41 41 42 44 44 46 45 44 46 47 52 57 57 55 54 49 45 39 28 25 27 26
26 25 27 29 29 27 25 26 30 28 27 29 30 30 30 28 26 24 24 25 25 26 27 28 28 28 28 28 28 28 28 27 27 26 27 28 28 29 30 33 37 38 36 37 40 40 41 41 41 42 42 47 56 58 55 54 53 49 40 27 25 27 27
28 26 28 30 30 28 26 29 31 29 29 30 31 32 32 30 27 26 27 27 28 28 28 28 28 28 27 27 26 27 27 27 27 28 29 29 30 31 32 33 36 36 33 33 35 36 36 36 37 38 40 46 54 57 54 52 53 50 39 28 27 27 27
29 26 27 29 28 27 28 32 32 29 30 32 32 34 33 31 30 29 29 28 28 28 28 28 27 27 26 26 26 26 27 27 29 30 31 32 33 34 36 36 37 38 36 35 35 33 32 33 34 36 40 45 49 50 49 50 52 46 35 29 29 28 28
29 25 26 28 26 25 30 34 32 30 32 33 34 35 34 32 31 29 29 29 29 29 29 27 26 26 25 25 26 26 27 28 29 30 31 32 32 33 34 35 36 37 36 36 35 33 31 31 31 33 36 39 39 39 41 45 46 38 29 28 29 29 30
28 25 24 25 26 27 31 35 33 31 32 34 34 35 34 32 31 30 30 31 30 29 28 26 24 23 22 23 24 24 24 25 26 27 27 26 27 28 30 32 34 35 34 34 34 33 31 28 27 30 33 34 34 35 38 40 37 30 26 28 30 30 31
27 24 22 24 28 30 31 34 35 33 34 35 36 36 35 33 33 33 33 32 30 27 25 23 21 21 21 21 21 20 20 20 20 21 22 23 25 26 28 30 32 32 32 31 32 32 30 28 26 27 29 31 31 31 34 34 30 25 26 29 31 31 31
29 26 24 24 28 30 31 34 36 36 35 36 36 35 35 35 35 36 34 31 28 25 22 21 20 20 20 19 19 18 17 16 17 19 21 22 24 25 27 30 30 31 31 30 31 30 29 29 29 27 28 28 26 25 28 29 26 24 27 30 31 31 31
34 31 29 28 29 29 30 33 36 37 36 35 35 35 36 37 36 35 32 29 26 24 22 22 21 20 20 19 18 17 16 16 17 19 21 23 24 25 27 29 30 31 30 29 30 30 28 28 29 29 29 27 25 25 27 26 25 26 28 30 31 31 31
37 35 34 34 32 31 32 33 35 38 37 35 36 36 36 36 34 32 31 29 27 25 24 23 22 20 20 19 18 17 17 17 19 21 23 24 25 26 28 30 30 30 30 28 29 29 29 28 29 31 30 27 26 28 27 26 27 29 29 30 31 31 31
37 36 35 35 33 32 34 34 35 39 39 36 36 36 35 35 33 32 32 31 28 26 24 23 21 20 20 19 19 19 19 19 20 22 24 25 26 26 28 30 30 30 29 28 28 29 28 27 28 30 30 27 27 28 28 27 29 31 31 30 30 31 32
36 37 36 35 33 33 33 33 34 39 40 37 36 37 36 36 35 34 34 30 27 25 23 22 20 20 21 21 20 20 20 21 22 23 25 26 26 27 28 29 29 28 27 27 28 27 26 26 27 28 28 26 26 28 28 28 30 31 30 30 30 32 34
37 37 35 35 33 31 31 32 34 40 41 38 37 37 36 36 35 34 31 28 26 24 22 20 20 21 22 22 21 21 22 23 24 25 26 26 26 27 28 28 27 26 25 26 26 26 24 24 26 26 25 25 27 28 28 28 29 30 29 29 31 32 33
35 35 34 32 30 29 31 33 36 39 39 37 35 34 34 34 32 30 28 26 25 24 23 22 22 23 24 23 22 23 25 26 27 27 27 27 27 27 28 28 26 24 23 23 25 25 24 23 25 26 25 26 28 29 28 28 28 29 28 28 29 30 31
32 30 30 28 28 30 34 36 38 38 37 35 34 32 31 30 28 25 24 24 25 25 24 24 24 25 25 25 25 26 27 28 28 28 27 27 27 27 28 27 24 22 21 22 24 25 23 24 26 26 26 29 31 30 28 28 28 27 27 27 27 29 30
29 29 28 29 31 34 35 35 36 35 34 32 30 29 27 25 23 23 24 25 25 24 24 24 26 27 28 28 27 28 29 30 29 28 28 27 27 27 27 25 23 21 20 21 23 24 24 25 27 27 28 31 33 29 27 28 27 26 27 28 28 29 29
28 28 30 31 33 34 33 31 31 30 28 26 25 24 23 23 24 25 26 27 26 24 24 25 27 29 29 29 30 30 31 31 29 28 27 26 26 26 25 24 22 20 19 20 22 24 25 26 26 27 29 32 32 28 27 27 27 27 28 28 27 27 26
30 30 31 32 32 31 29 27 26 25 23 23 23 23 24 27 28 27 26 26 24 23 23 25 27 28 28 29 30 30 30 29 28 27 27 26 26 26 25 24 22 19 18 18 21 24 26 26 26 28 30 32 31 29 26 25 25 26 27 26 26 26 26
32 31 31 30 29 27 25 24 24 23 23 24 24 24 25 26 26 24 23 23 23 23 24 25 26 27 27 28 27 27 27 27 27 27 27 27 26 26 25 24 21 19 17 18 20 24 26 26 27 29 30 31 30 29 27 25 25 25 25 25 26 26 26
33 32 31 30 28 27 26 26 25 26 26 26 27 26 24 23 22 21 21 22 23 24 25 26 26 26 26 26 26 26 27 27 26 27 27 27 27 26 25 23 21 19 18 19 22 25 26 26 27 29 29 29 29 28 27 26 26 26 26 25 25 25 26
33 31 29 28 25 23 23 22 21 21 21 22 23 24 22 20 20 20 21 22 24 25 25 25 26 26 26 26 26 26 25 25 25 25 27 28 28 27 25 24 22 20 19 21 24 26 26 26 28 29 29 28 28 27 25 24 24 25 25 25 25 25 26
28 26 24 23 20 18 17 16 15 15 15 16 16 17 18 19 20 21 22 23 24 25 25 26 27 27 27 26 25 24 24 23 23 24 26 28 28 27 26 24 22 19 19 22 26 27 27 26 26 27 27 27 26 25 24 23 23 23 24 25 25 25 26
23 21 20 18 16 15 14 13 13 12 12 13 14 16 18 20 21 22 23 24 25 26 27 27 27 27 26 25 24 23 22 21 22 24 26 28 27 26 24 23 21 19 17 19 23 26 27 27 26 25 25 25 24 23 23 22 23 23 24 25 25 25 26
15 15 14 12 12 11 11 11 12 13 14 15 17 19 20 21 22 23 24 25 26 27 26 26 25 25 24 23 22 21 20 21 22 24 24 24 23 23 22 20 20 19 17 18 21 23 25 26 26 26 25 25 24 23 22 22 22 23 24 24 25 26 27
Wind_Direction
239 236 229 232 234 237 239 238 237 235 232 231 230 227 225 224 222 221 220 219 216 215 214 213 211 211 210 209 208 207 208 209 211 211 210 211 213 214 217 220 224 228 230 233 242 253 264 275 286 296 305 314 319 320 322 325 326 326 323 320 316 314 313
233 230 229 231 230 231 234 236 236 235 234 233 230 227 226 227 226 224 223 222 220 217 216 216 216 217 218 216 214 214 215 216 216 216 215 217 220 222 223 225 227 230 232 237 246 253 263 271 277 284 293 303 311 314 314 315 317 316 312 308 305 305 303
233 228 226 229 231 229 229 231 232 232 234 234 231 228 229 229 228 226 224 223 222 220 218 219 219 221 222 222 221 221 222 222 222 222 223 224 227 227 228 231 234 237 241 247 253 257 262 267 272 277 285 294 302 305 306 308 309 309 305 302 300 298 297
234 231 230 230 231 229 226 228 229 228 231 233 232 232 232 232 229 227 226 224 224 223 222 222 222 222 224 225 226 226 227 228 228 229 229 231 232 232 234 239 242 246 250 253 255 258 261 265 269 272 276 284 291 294 299 303 304 305 301 296 297 298 295
240 240 239 236 232 227 223 224 226 225 228 230 231 231 232 231 228 226 226 226 226 225 225 224 224 224 225 226 227 229 230 232 233 234 235 236 237 237 240 245 248 251 251 252 253 254 258 263 265 267 273 279 279 281 294 299 296 294 290 289 301 303 295
245 245 245 245 242 233 224 225 227 227 227 228 229 229 229 228 226 225 225 225 225 225 226 225 225 226 226 227 229 231 232 234 236 238 239 241 242 242 245 249 251 251 251 254 256 257 260 263 261 264 272 275 271 278 292 295 290 286 284 290 305 305 294
252 250 249 251 251 240 226 224 227 228 228 228 228 227 227 227 227 227 226 226 224 224 225 226 227 229 229 230 232 233 235 236 239 241 243 245 246 246 247 249 252 254 256 258 259 259 262 261 261 266 273 277 279 288 299 298 290 285 285 290 294 294 289
255 253 253 253 251 238 225 222 225 227 228 227 227 226 224 224 226 226 226 226 224 224 225 225 227 228 229 232 234 236 238 239 241 243 246 247 249 250 250 250 253 255 257 257 257 259 261 262 267 272 275 278 283 291 299 300 294 285 282 287 288 288 285
251 251 251 251 246 234 224 222 224 229 230 227 228 227 224 223 224 225 225 224 223 225 226 226 227 227 228 231 235 237 239 242 244 246 248 250 252 253 251 251 252 253 256 258 258 260 262 264 271 274 273 276 282 286 289 295 297 289 282 282 285 287 285
255 254 248 246 243 232 224 224 226 228 228 227 227 226 223 222 223 223 223 221 222 225 226 225 227 229 230 232 235 238 240 244 248 251 254 256 258 257 254 255 256 254 255 260 262 264 265 267 272 275 276 278 280 280 281 288 295 295 289 283 281 283 281
255 253 245 243 240 230 225 227 226 222 221 224 226 225 224 224 224 223 222 222 225 225 223 223 225 230 233 234 236 240 243 247 252 256 259 262 264 263 260 260 260 258 257 260 265 267 268 269 273 277 280 280 279 279 279 283 290 296 297 287 277 278 276
254 245 240 241 238 228 227 229 222 212 214 220 223 224 225 226 225 225 225 225 226 223 220 223 227 231 235 235 237 242 246 250 255 259 264 266 267 268 264 261 261 262 261 262 266 269 269 271 274 276 278 279 281 283 282 282 285 292 298 289 273 272 273
256 245 238 242 242 235 233 229 215 206 209 214 219 223 225 225 225 225 224 223 223 222 223 226 228 232 236 237 240 244 248 252 257 261 265 267 267 269 268 264 263 263 262 262 266 269 270 272 274 276 278 277 281 285 283 282 283 287 294 290 272 267 268
259 254 246 246 247 245 243 230 209 201 204 208 214 220 221 222 224 224 223 221 221 222 224 226 228 232 237 240 244 247 249 252 256 260 261 263 264 265 267 266 265 263 260 262 267 271 273 274 274 276 278 278 279 280 279 281 282 285 292 289 268 263 264
262 264 257 251 245 244 245 227 205 198 200 204 211 216 217 220 223 223 223 222 222 222 223 227 231 235 238 242 245 248 251 253 256 258 258 260 262 262 264 267 267 265 262 263 267 270 273 274 271 273 278 279 278 276 275 278 281 284 291 284 263 263 265
259 267 263 252 243 242 239 217 201 199 200 202 208 213 215 220 222 222 222 223 225 225 226 231 235 237 240 244 247 250 253 255 256 258 258 258 260 261 263 265 267 267 268 269 270 271 272 273 272 274 276 275 274 272 273 276 278 282 287 278 261 265 264
256 267 261 248 241 240 229 208 200 201 200 202 208 212 216 220 220 219 220 221 224 225 227 231 235 238 241 244 248 250 252 254 256 258 260 261 263 265 266 267 268 270 271 271 271 272 272 271 270 269 267 266 269 270 272 275 277 282 284 271 261 264 261
256 264 254 239 235 233 220 206 203 204 201 202 207 212 216 218 217 217 218 220 222 224 227 231 234 237 241 244 247 250 252 256 260 263 266 268 269 270 271 271 272 273 273 272 272 272 270 268 267 263 262 265 270 272 273 273 276 281 278 262 257 260 257
254 254 243 231 227 224 215 208 207 206 204 203 206 211 215 216 217 218 218 219 221 223 226 230 234 238 241 245 249 253 257 262 266 268 270 271 273 273 274 274 274 274 276 278 279 277 274 271 268 264 263 266 269 271 270 270 274 277 268 255 254 255 252
247 242 235 227 222 220 215 210 208 206 204 204 206 211 214 215 216 216 216 218 220 222 226 231 236 241 245 250 255 260 264 266 268 271 273 275 278 278 278 279 278 278 279 280 281 280 277 273 267 262 261 262 263 265 266 267 269 266 256 250 251 250 249
236 231 231 229 224 221 217 213 210 206 204 204 207 210 214 215 216 215 215 217 219 222 228 234 241 247 252 258 262 264 266 267 270 276 281 284 285 285 283 281 280 281 280 279 278 277 274 268 263 258 255 253 256 260 263 264 260 249 243 246 247 247 249
233 230 233 233 228 223 219 217 213 207 205 206 208 211 214 216 216 215 216 218 222 227 234 241 248 254 258 263 265 263 263 267 276 285 291 293 293 291 286 282 280 280 279 278 276 274 268 262 257 250 243 243 250 258 259 255 243 233 236 243 244 246 248
236 236 238 240 238 229 223 222 216 208 208 211 211 214 216 215 215 216 218 223 227 232 240 247 252 257 262 264 262 260 264 275 287 296 301 303 303 298 289 283 280 279 279 278 276 273 268 259 251 242 236 236 247 256 253 244 232 229 236 242 243 244 246
239 240 241 244 246 238 230 227 218 208 208 212 213 215 217 215 216 219 222 226 229 234 242 249 254 259 261 260 259 261 271 283 294 302 307 309 308 301 292 285 281 281 280 279 276 273 267 256 245 238 234 233 240 245 242 234 230 230 235 241 242 242 244
239 242 242 242 245 243 237 232 222 210 208 211 213 214 215 215 217 221 223 225 228 234 243 250 254 259 260 260 262 268 278 288 297 303 308 310 309 302 292 286 284 283 282 280 279 274 266 254 242 236 235 234 235 235 230 226 229 232 235 240 241 240 243
237 240 240 238 241 244 241 235 224 213 209 211 213 213 213 216 219 222 223 224 229 236 244 250 255 261 262 263 267 273 283 292 299 304 307 309 308 300 290 286 285 284 283 281 279 274 265 255 244 237 235 234 232 229 225 225 231 236 238 239 239 239 244
232 233 232 233 237 241 237 229 219 212 210 212 214 215 217 219 221 222 223 225 231 238 244 252 261 267 267 267 272 281 289 295 300 303 305 306 303 295 286 283 284 284 282 281 277 271 265 257 248 239 234 230 226 225 225 227 233 238 239 238 238 241 248
228 229 230 232 233 230 224 217 211 208 210 214 216 218 219 220 221 221 223 227 233 238 246 258 268 272 271 272 278 286 293 297 300 301 302 300 297 289 282 280 282 282 281 278 273 268 263 256 246 236 229 225 224 225 229 232 236 239 239 238 240 246 253
224 226 228 227 219 212 209 207 206 207 210 214 215 216 216 216 218 220 224 230 236 242 252 263 272 275 275 276 282 288 293 296 298 298 297 295 291 284 278 278 280 281 278 274 269 265 259 252 242 231 224 225 227 229 235 239 239 239 240 241 245 253 261
218 219 218 212 205 201 201 203 204 206 207 208 208 207 208 211 216 221 227 234 242 251 261 268 275 277 277 278 282 287 291 293 293 292 291 289 284 278 274 275 277 277 273 269 265 260 253 246 238 229 226 230 233 235 239 241 240 238 241 246 251 258 265
198 197 195 192 191 190 191 195 196 195 195 196 198 203 209 217 223 227 233 240 249 260 267 270 273 274 275 278 283 287 289 289 288 286 284 281 277 272 269 270 273 274 271 266 261 255 247 240 233 229 230 235 237 237 238 239 238 238 243 250 256 263 271
179 180 180 180 180 179 180 183 186 188 192 197 204 214 222 228 231 235 242 250 257 263 265 267 271 274 277 282 285 286 286 285 284 282 279 275 270 266 264 265 268 271 270 265 258 250 243 236 232 232 235 239 240 238 236 237 241 245 249 256 264 273 282
173 175 177 178 179 179 183 189 196 203 208 212 216 221 226 232 237 243 250 256 259 262 266 271 276 279 283 286 286 285 285 284 283 280 275 269 265 261 260 261 264 266 267 262 253 245 238 233 231 233 235 239 241 241 239 241 248 255 261 268 275 282 288
170 171 173 176 179 183 189 195 200 207 214 220 225 229 233 239 244 248 254 259 263 268 274 279 283 286 288 288 287 287 286 284 282 278 272 266 262 260 258 259 261 263 261 255 247 239 232 229 229 231 233 237 242 246 247 248 254 262 269 276 283 289 292
167 167 170 173 174 178 184 190 195 202 210 218 224 230 236 244 250 256 262 268 272 276 281 285 288 290 290 289 288 287 285 282 280 276 271 268 264 262 259 258 258 259 257 252 246 237 230 227 229 232 235 239 244 251 256 258 262 269 275 282 289 293 293
167 168 170 174 177 182 189 197 206 215 221 226 231 238 247 253 260 267 272 275 279 282 285 288 290 290 289 288 285 282 279 277 275 272 269 267 266 264 259 254 254 255 252 248 243 234 228 228 233 236 237 240 246 256 264 269 274 279 283 287 290 292 293
171 175 179 185 193 202 209 216 224 232 241 249 255 262 267 269 273 277 279 281 283 285 287 288 288 287 285 282 279 276 274 272 271 269 267 266 265 260 254 250 252 253 248 244 239 233 231 235 240 241 241 245 253 263 269 274 279 282 284 286 289 294 297
179 186 196 208 220 230 240 249 257 262 268 274 276 276 277 279 282 283 285 286 286 287 286 284 282 280 278 276 274 273 272 270 268 266 264 263 259 253 250 250 248 244 242 242 240 236 236 239 241 243 247 255 262 267 270 274 277 280 284 290 296 299 298